Location: A O Calhoun Middle School
(33.2198°N, 97.1397°W)
Time: 15:18:15
(UTC+00:00)

DELTA 2 R/B (1) - Pass Details

Date: 08 December 2021
Orbit: 791 x 802 km, 39.6° (Epoch: 25 January)

Event Time Altitude Azimuth Distance (km) Brightness Sun altitude
Exits shadow 12:12:00 19° 302° (WNW) 1,787 4.8 -13.9°
Maximum altitude 12:15:38 46° 8° (N) 1,052 4.1 -13.2°
Drops below altitude 10° 12:20:57 10° 81° (E) 2,348 7.1 -12.2°
Sets 12:23:32 0° 88° (E) 3,278 8.2 -11.7°
